This is the latest recevied weather packets stored in our database for station/object DB0MI. If no packets are shown the sender has not sent any weather packets the latest 10 day(s).
| Time | Temp. | Humidity | Pressure | Rain* | Wind** | Luminosity | Snow |
|---|---|---|---|---|---|---|---|
| 1777885908 | 21.11° C | 47% | 1014.1 hPa | 0 mm | - | - | - |
| 1777885308 | 21.11° C | 46% | 1014 hPa | 0 mm | - | - | - |
| 1777884708 | 21.11° C | 48% | 1014 hPa | 0 mm | - | - | - |
| 1777884108 | 21.11° C | 49% | 1013.9 hPa | 0 mm | - | - | - |
| 1777883508 | 20.56° C | 50% | 1013.9 hPa | 0 mm | - | - | - |
| 1777882908 | 20.56° C | 48% | 1013.8 hPa | 0 mm | - | - | - |
| 1777882308 | 20° C | 50% | 1013.7 hPa | 0 mm | - | - | - |
| 1777881709 | 19.44° C | 51% | 1013.8 hPa | 0 mm | - | - | - |
| 1777881109 | 18.89° C | 51% | 1013.7 hPa | 0 mm | - | - | - |
| 1777880509 | 18.33° C | 52% | 1013.7 hPa | 0 mm | - | - | - |
| 1777879909 | 17.78° C | 54% | 1013.8 hPa | 0 mm | - | - | - |
| 1777879309 | 16.67° C | 56% | 1013.7 hPa | 0 mm | - | - | - |
| 1777878709 | 15.56° C | 58% | 1013.8 hPa | 0 mm | - | - | - |
| 1777878109 | 15° C | 59% | 1013.8 hPa | 0 mm | - | - | - |
| 1777877509 | 14.44° C | 61% | 1013.6 hPa | 0 mm | - | - | - |
| 1777876909 | 13.89° C | 62% | 1013.8 hPa | 0 mm | - | - | - |
| 1777876309 | 13.33° C | 62% | 1013.6 hPa | 0 mm | - | - | - |
| 1777875709 | 13.33° C | 62% | 1013.7 hPa | 0 mm | - | - | - |
| 1777875109 | 12.78° C | 63% | 1013.6 hPa | 0 mm | - | - | - |
| 1777874509 | 12.78° C | 63% | 1013.6 hPa | 0 mm | - | - | - |
| 1777873909 | 12.22° C | 63% | 1013.5 hPa | 0 mm | - | - | - |
| 1777873309 | 12.22° C | 63% | 1013.7 hPa | 0 mm | - | - | - |
| 1777872709 | 11.67° C | 63% | 1013.6 hPa | 0 mm | - | - | - |
| 1777872109 | 11.67° C | 63% | 1013.7 hPa | 0 mm | - | - | - |
| 1777871509 | 11.67° C | 64% | 1013.5 hPa | 0 mm | - | - | - |
* Rain latest hour (hover to see other rain measurements)
** Current wind speed in m/s (hover to see current wind gust speed)